STARLINK-2571, 48401

Orbit data source: Space-Track

STARLINK-2571, 48401 is a payload satellite owned by SpaceX/Seattle (US) in LEO that was launched on Tue, 04 May 2021 UTC via an FALCON 9 launch vehicle from the Air Force Eastern Test Range (AFETR). Payload-class satellites include a variety of spacecraft equipped with specific instruments for various scientific and technological missions. These include communications satellites like Starlink; space stations such as the ISS; scientific satellites like the Hubble; Earth observation satellites from companies like Planet Labs, Umbra, and HawkEye 360; GPS; miniature CubeSats for education and research; and military/defense satellites.

Loading next visibility...
Identifier
48401, 2021-038BA
Orbit
LEO
Country
Flag of USUS
Related business
Manufacturer
SpaceX/Seattle
Mission
Operational Commercial Communications
Bus & Motor
STARLINK, Unknown motor
Mass
260 kg wet, ~248 kg dry
Launch date (UTC)
2021-05-04 (5 years ago)
Launch vehicle
FALCON 9
Launch site
Air Force Eastern Test Range (AFETR)
Object type
Payload
Rocket body
Debris
Shape & HBR
Box + 1 Pan, 10.1 m
Radar Cross Section
13.562 m², Large (>1 m²)

Expand to show TLE details & history
Last TLE update: 2 days ago

TLE from 2 days ago
0 STARLINK-2571
1 48401U 21038BA  26171.42344573  .00000295  00000-0  21263-4 0  9994
2 48401  53.1590 214.9565 0001184  89.8401 270.2736 15.31705129283170
Epoch: 2026-06-20T10:09Z
TLE epoch observation values (Epoch: 2026-06-20T10:09:45.711Z)
Latitude
-0.00001°
Longitude
153.87775°
Altitude
471.621 km
Speed
7.631 km/s
True Right ascension
14h 19m 49s
True Declination
0° 00' 00"
Sunlit
Object was in full shadow at epoch
Visualization orbit readout
Latitude
Unknown
Longitude
Unknown
Altitude
Unknown
Speed
Unknown
Apparent Right ascension
Unknown
Apparent Declination
Unknown
Sunlit
N/A
Visualization observer readout
Local Sidereal Time
23:08:50
Azimuth
Unknown
Elevation
Unknown
Doppler factor
Unknown
Orbital elements
Apogee altitude
471.792 km
Perigee altitude
470.171 km
Semi-major axis
6,849.118 km
Eccentricity
0.00012
Inclination
53.159°
RAAN
214.9565°
Arg. of periapsis
89.8401°
True anomaly
270.26003°
Mean anomaly
270.2736°
Eccentric anomaly
270.26682°
Mean motion
3.82905 °/min
Orbital period
94.02 mins
BSTAR
0.000021263
Loading maneuver chart data...
Computing Atmospheric mass density...

Documentation

Showing up to 5 results
|